Regional Weather Roundup
Issued by NWS

Home | Current Version | Previous Version | Graphics & Text | Print | Product List | Glossary On
Versions: 1 2 3 4 5 6 7 8 9 10 11 12 13 14 15 16 17 18 19 20 21 22 23 24 25 26 27 28 29 30 31 32 33 34 35 36 37 38 39 40 41 42 43 44 45 46 47 48 49 50
000
ASUS43 KLOT 210306
RWRIL

ILLINOIS REGIONAL WEATHER ROUNDUP
NATIONAL WEATHER SERVICE CHICAGO/ROMEOVILLE IL
900 PM CST SAT DEC 20 2014

NOTE: "FAIR" INDICATES FEW OR NO CLOUDS BELOW 12,000 FEET WITH NO
SIGNIFICANT WEATHER AND/OR OBSTRUCTIONS TO VISIBILITY.

* THESE STATIONS ARE NOT UNDER NWS QUALITY CONTROL. THEY ALSO MAY NOT
  REPORT WEATHER SUCH AS PRECIPITATION OR FOG.

ILZ001-002-007-009-015-016-024-210400-
NORTHWEST ILLINOIS

CITY           SKY/WX    TMP DP  RH WIND       PRES   REMARKS
MOLINE         CLOUDY    33  29  85 S6        30.20F WCI  28
STERLING*      CLOUDY    32  27  80 SE5       30.22F WCI  27
SAVANNA*       CLOUDY    33  28  84 SE6       30.21F WCI  27
$$

ILZ003-004-008-010-011-017-018-210400-
NORTH CENTRAL ILLINOIS

CITY           SKY/WX    TMP DP  RH WIND       PRES   REMARKS
ROCKFORD       CLOUDY    31  26  82 SE5       30.25S WCI  26
FREEPORT*      CLOUDY    30  27  89 SE5       30.23F FOG     WCI  25
ROCHELLE*      CLOUDY    30  28  92 S7        30.24S WCI  23
DE KALB*       CLOUDY    29  27  90 S8        30.24S WCI  21
PERU*          CLOUDY    33  30  89 SE7       30.25S WCI  27
$$

ILZ005-006-012>014-019>023-210400-
NORTHEAST ILLINOIS

CITY           SKY/WX    TMP DP  RH WIND       PRES   REMARKS
CHICAGO-OHARE  CLOUDY    32  26  78 S6        30.25S WCI  26
CHICAGO-MIDWAY CLOUDY    34  26  72 S7        30.27S WCI  28
AURORA         CLOUDY    32  26  78 S7        30.25F WCI  26
LANSING*       CLOUDY    32  27  83 S5        30.27F WCI  27
JOLIET*        CLOUDY    32  27  81 CALM      30.26F
WAUKEGAN       CLOUDY    31  24  75 S5        30.24S WCI  26
DUPAGE AIRPORT CLOUDY    32  26  78 S6        30.24F WCI  26
KANKAKEE*      CLOUDY    32  28  84 S3        30.28S
WHEELING       CLOUDY    32  25  75 S8        30.27S WCI  25
MORRIS*        CLOUDY    32  30  91 S5        30.25F WCI  27
ROMEOVILLE*    CLOUDY    32  27  82 S6        30.26S WCI  26
NORTHERLY ISL    N/A     33  25  72 S10         N/A  WCI  25
$$

LMZ740>746-210400-
SOUTHERN LAKE MICHIGAN

STATION/POSITION SKY/WX   TEMP    WIND        PRES    VSBY  WAVE
                          AIR SEA DIR/SP/G                  HT/PER
                          (F)     (DEG/KT/KT) (MB)    (MI)  (FT/S)
WAUKEGAN HARBOR            32      CALM  /  3   N/A
HARRISON CRIB              33     190/ 11/ 13   N/A
BURNHAM HARBOR             33     190/  8/ 10   N/A
CALUMET HARBOR             33     190/  5/  8 1023.8F
$$

ILZ025>027-034>036-040-047-049-050-058-095>099-210400-
WEST-CENTRAL ILLINOIS

CITY           SKY/WX    TMP DP  RH WIND       PRES   REMARKS
QUINCY         CLOUDY    38  33  82 S7        30.20R WCI  33
GALESBURG*     CLOUDY    33  31  92 SE3       30.21S
MACOMB*        CLOUDY    34  33  95 SE7       30.23S FOG     WCI  28
JACKSONVILLE*  CLOUDY    39  34  81 S8        30.23S WCI  34
PITTSFIELD*    CLOUDY    37  34  88 SE6       30.23S WCI  33
$$

ILZ028>032-037-038-041>044-048-051>054-059>061-210400-
CENTRAL ILLINOIS

CITY           SKY/WX    TMP DP  RH WIND       PRES   REMARKS
PONTIAC        CLOUDY    33  30  90 S7        30.26S WCI  27
BLOOMINGTON    CLOUDY    32  29  89 S10       30.25S WCI  24
DECATUR        CLOUDY    34  28  79 S7        30.27S WCI  28
PEORIA         CLOUDY    35  27  72 SE6       30.24F WCI  30
LACON*         CLOUDY    32  28  86 CALM      30.24S
LINCOLN*       CLOUDY    35  31  86 S7        30.27S WCI  29
SPRINGFIELD    CLOUDY    38  31  76 S10       30.25S WCI  31
TAYLORVILLE    CLOUDY    34  30  86 SE6       30.26S WCI  29
$$

ILZ033-039-045-046-055>057-062-063-210400-
EAST-CENTRAL ILLINOIS

CITY           SKY/WX    TMP DP  RH WIND       PRES   REMARKS
CHAMPAIGN      CLOUDY    31  27  85 SE6       30.26F WCI  25
DANVILLE*      CLOUDY    31  26  81 S5        30.25S WCI  26
RANTOUL*       CLOUDY    32  29  89 SE6       30.26S WCI  26
MATTOON        CLOUDY    30  25  81 SE5       30.27S WCI  25
PARIS*         CLEAR     31  28  90 SE5       30.29S WCI  26
$$

ILZ079-100>102-210400-
SOUTHWEST ILLINOIS

CITY           SKY/WX    TMP DP  RH WIND       PRES   REMARKS
BELLEVILLE     CLOUDY    39  34  81 SE7       30.26S WCI  34
CAHOKIA*       CLOUDY    40  34  79 SE7       30.25F
SPARTA*        CLOUDY    38  32  79 SE7       30.28S WCI  33
$$

ILZ064>066-069>071-074>076-080>082-084>086-088>090-092>094-210400-
SOUTH-CENTRAL ILLINOIS

CITY           SKY/WX    TMP DP  RH WIND       PRES   REMARKS
CARBONDALE     CLOUDY    36  29  75 E3        30.29R
CAIRO*         CLEAR     33  32  94 CALM      30.28S
EFFINGHAM*     CLOUDY    31  27  84 CALM      30.30S
MARION         CLOUDY    37  30  75 CALM      30.29S
MT. VERNON     CLOUDY    36  27  69 E6        30.29S WCI  31
CENTRALIA*     CLOUDY    37  28  72 SE5       30.28S WCI  33
SALEM*         CLOUDY    38  30  71 SE5       30.29S WCI  35
METROPOLIS*    CLEAR     28  28 100 CALM      30.27F
$$

ILZ067-068-072-073-078-083-087-091-210400-
SOUTHEAST ILLINOIS

CITY           SKY/WX    TMP DP  RH WIND       PRES   REMARKS
LAWRENCEVILLE  CLEAR     27  25  92 E3        30.31S FOG
FLORA*         CLEAR     33  29  83 SE5       30.30S WCI  29
FAIRFIELD*     CLOUDY    34  28  80 CALM      30.29S
HARRISBURG*    CLOUDY    35  29  80 NE5       30.30F WCI  31
ROBINSON*      CLEAR     24  23  96 CALM      30.32S
CARMI*         CLEAR     29  28  96 CALM      30.30S
$$

ABBREVIATIONS USED IN REMARKS
   TC - TEMPERATURE IN CELSIUS
  WCI - WIND CHILL INDEX
   HX - HEAT INDEX
  VSB - VISIBILITY
$$




USA.gov is the U.S. government's official web portal to all federal, state and local government web resources and services.